Aérodrome :
LOGIN :

S'inscrire | Disclaimer

   EN    FR    IT 

 










Légende :    VFR   VFR Marginal   IFR   IFR Intensif   IFR Très Intensif
Visi : 
Plafond : 
>= 8 km
>= 3000ft
5 à 8 km
1000 à 3000 ft
1500m à 5 km
500 à 1000 ft
800 à 1500m
200 à 500 ft
< 800m
< 200 ft
Symboles :   Orages  Brouillard  Fortes neiges  Fortes précipitations  Vent > 20 kt
SIGMETs :   Divers  Orages  Givrage  Turbulence  Onde Orograph.  Cendres Volcan.







- Altitude de l'aérodrome : 768 ft
- Code IATA : MXP


LIMC - Milano Malpensa

DERNIER METAR :
  • 241250Z 20004KT 130V270 CAVOK 25/10 Q1017 NOSIG

METARs EXPIRÉS :
  • 241220Z 22007KT 180V270 CAVOK 24/09 Q1017 NOSIG
  • 241150Z 19005KT 090V240 CAVOK 24/09 Q1017 NOSIG
  • 241120Z 17005KT 140V210 CAVOK 24/09 Q1018 NOSIG
  • 241050Z 17005KT 110V220 CAVOK 24/09 Q1018 NOSIG
  • 241020Z VRB03KT CAVOK 23/10 Q1018 NOSIG
  • 240950Z VRB04KT CAVOK 23/10 Q1018 NOSIG

TAF TAF LIMC
Valide du 24 à 12h jusqu'au 25 à 18h UTC


241100Z 2412/2518 VRB05KT 9999 SCT070
Pas de NOTAMs connus pour ce terrain.



MET'MAP, la Météo Aéronautique d'un coup d'oeil ! - Copyright ORBIFLY Décembre 2007 - Disclaimer

ORBIFLY MET'MAP TEAM :

Programmation & Développement : Alexandra Zaïnal
Conception & Développement : Baudouin d'Aumeries
Co-Programmation & Développement : Marc-Olivier Méhu
Soutien technique & logistique : Manuel Goepfert

Contact : metmap@orbifly.com




SOURCES & CREDITS :

   NOAA